| time (UTC) | temp F | wind direction | speed MPH | gust MPH | rain 1hr in | rain 24hr in | rain mn in | humidity % | barometer mb |
| 20260507141540 | 49 | 143 | 1.0 | 3.0 | 0.00 | 0.00 | 0.00 | 82 | 1021.2 |
| 20260507140043 | 48 | 130 | 1.0 | 3.0 | 0.00 | 0.00 | 0.00 | 82 | 1021.1 |
| 20260507134536 | 48 | 139 | 0.0 | 3.0 | 0.00 | 0.00 | 0.00 | 82 | 1021.0 |
| 20260507133036 | 48 | 0 | 0.0 | 3.0 | 0.00 | 0.00 | 0.00 | 82 | 1021.0 |
| 20260507131605 | 48 | 165 | 0.0 | 4.0 | 0.00 | 0.00 | 0.00 | 81 | 1020.8 |
| 20260507130039 | 48 | 219 | 0.0 | 2.0 | 0.00 | 0.00 | 0.00 | 82 | 1020.8 |
| 20260507124546 | 48 | 148 | 0.0 | 3.0 | 0.00 | 0.00 | 0.00 | 82 | 1020.8 |
| 20260507123043 | 48 | 170 | 0.0 | 1.0 | 0.00 | 0.00 | 0.00 | 82 | 1021.0 |
| 20260507121535 | 48 | 170 | 1.0 | 3.0 | 0.00 | 0.00 | 0.00 | 81 | 1021.0 |
| 20260507120040 | 49 | 0 | 0.0 | 2.0 | 0.00 | 0.00 | 0.00 | 81 | 1021.1 |
| 20260507114537 | 49 | 128 | 2.0 | 3.0 | 0.00 | 0.00 | 0.00 | 80 | 1021.3 |
| 20260507113100 | 49 | 144 | 1.0 | 3.0 | 0.00 | 0.00 | 0.00 | 80 | 1021.4 |
| 20260507111537 | 49 | 134 | 0.0 | 4.0 | 0.00 | 0.00 | 0.00 | 80 | 1021.3 |
| 20260507110039 | 49 | 0 | 0.0 | 2.0 | 0.00 | 0.00 | 0.00 | 80 | 1021.5 |
| 20260507104536 | 49 | 0 | 1.0 | 4.0 | 0.00 | 0.00 | 0.00 | 79 | 1021.4 |
| 20260507103033 | 50 | 138 | 1.0 | 4.0 | 0.00 | 0.00 | 0.00 | 79 | 1021.4 |
| 20260507101537 | 50 | 146 | 1.0 | 3.0 | 0.00 | 0.00 | 0.00 | 79 | 1021.5 |
| 20260507100051 | 50 | 0 | 0.0 | 5.0 | 0.00 | 0.00 | 0.00 | 79 | 1021.3 |
| 20260507094550 | 50 | 0 | 1.0 | 4.0 | 0.00 | 0.00 | 0.00 | 79 | 1021.3 |
| 20260507093038 | 51 | 0 | 0.0 | 5.0 | 0.00 | 0.00 | 0.00 | 79 | 1021.4 |
| 20260507091540 | 51 | 0 | 1.0 | 4.0 | 0.00 | 0.00 | 0.00 | 79 | 1021.5 |
| 20260507090039 | 51 | 0 | 0.0 | 3.0 | 0.00 | 0.00 | 0.00 | 80 | 1021.4 |
| 20260507084549 | 51 | 201 | 1.0 | 5.0 | 0.00 | 0.00 | 0.00 | 80 | 1021.4 |
| 20260507083036 | 51 | 0 | 0.0 | 4.0 | 0.00 | 0.00 | 0.00 | 82 | 1021.5 |
| 20260507081535 | 50 | 0 | 0.0 | 0.0 | 0.00 | 0.00 | 0.00 | 83 | 1021.6 |
| 20260507080035 | 50 | 0 | 0.0 | 3.0 | 0.00 | 0.00 | 0.00 | 84 | 1021.5 |
| 20260507074537 | 50 | 0 | 0.0 | 2.0 | 0.00 | 0.00 | 0.00 | 85 | 1021.7 |
| 20260507073037 | 50 | 0 | 0.0 | 1.0 | 0.00 | 0.00 | 0.00 | 86 | 1021.5 |
| 20260507071542 | 50 | 0 | 0.0 | 2.0 | 0.00 | 0.00 | 0.00 | 86 | 1021.5 |
| 20260507070042 | 50 | 0 | 0.0 | 2.0 | 0.00 | 0.00 | 0.00 | 87 | 1021.4 |
| 20260507064544 | 50 | 0 | 0.0 | 5.0 | 0.00 | 0.00 | 0.00 | 88 | 1021.5 |
| 20260507063037 | 51 | 306 | 1.0 | 2.0 | 0.00 | 0.00 | 0.00 | 88 | 1021.4 |
| 20260507061537 | 51 | 0 | 0.0 | 4.0 | 0.00 | 0.00 | 0.00 | 88 | 1021.5 |
| 20260507060040 | 51 | 0 | 0.0 | 4.0 | 0.00 | 0.00 | 0.00 | 88 | 1021.5 |
| 20260507054540 | 51 | 213 | 0.0 | 7.0 | 0.00 | 0.00 | 0.00 | 87 | 1021.5 |
| 20260507053038 | 52 | 184 | 1.0 | 4.0 | 0.00 | 0.00 | 0.00 | 86 | 1021.5 |
| 20260507051536 | 52 | 0 | 1.0 | 7.0 | 0.00 | 0.00 | 0.00 | 84 | 1021.6 |
| 20260507044540 | 53 | 183 | 1.0 | 6.0 | 0.00 | 0.00 | 0.00 | 80 | 1021.4 |
| 20260507043036 | 54 | 217 | 1.0 | 6.0 | 0.00 | 0.00 | 0.00 | 79 | 1021.4 |
| 20260507041536 | 54 | 190 | 0.0 | 3.0 | 0.00 | 0.00 | 0.00 | 79 | 1021.3 |
| 20260507040036 | 54 | 0 | 0.0 | 3.0 | 0.00 | 0.00 | 0.00 | 79 | 1021.3 |
| 20260507034540 | 54 | 255 | 0.0 | 4.0 | 0.00 | 0.00 | 0.00 | 79 | 1021.3 |
| 20260507033042 | 54 | 202 | 0.0 | 3.0 | 0.00 | 0.00 | 0.00 | 79 | 1021.1 |
| 20260507031536 | 54 | 0 | 0.0 | 3.0 | 0.00 | 0.00 | 0.00 | 78 | 1020.9 |
| 20260507030038 | 55 | 0 | 1.0 | 6.0 | 0.00 | 0.00 | 0.00 | 77 | 1020.8 |
| 20260507024540 | 55 | 0 | 1.0 | 4.0 | 0.00 | 0.00 | 0.00 | 77 | 1020.8 |
| 20260507023030 | 55 | 360 | 1.0 | 5.0 | 0.00 | 0.00 | 0.00 | 77 | 1020.6 |
| 20260507021547 | 56 | 280 | 0.0 | 6.0 | 0.00 | 0.00 | 0.00 | 76 | 1020.6 |
| 20260507020036 | 56 | 286 | 1.0 | 6.0 | 0.00 | 0.00 | 0.00 | 76 | 1020.7 |
| 20260507014532 | 56 | 0 | 1.0 | 9.0 | 0.00 | 0.00 | 0.00 | 76 | 1020.6 |
| 20260507013035 | 56 | 296 | 1.0 | 7.0 | 0.00 | 0.00 | 0.00 | 76 | 1020.7 |
| 20260507011536 | 56 | 263 | 1.0 | 6.0 | 0.00 | 0.00 | 0.00 | 75 | 1020.6 |
| 20260507010043 | 57 | 333 | 2.0 | 8.0 | 0.00 | 0.00 | 0.00 | 75 | 1020.6 |
| 20260507004535 | 57 | 0 | 0.0 | 5.0 | 0.00 | 0.00 | 0.00 | 75 | 1020.7 |
| 20260507003035 | 58 | 295 | 1.0 | 5.0 | 0.00 | 0.00 | 0.00 | 73 | 1020.7 |
| 20260507001534 | 58 | 0 | 1.0 | 7.0 | 0.00 | 0.00 | 0.00 | 74 | 1020.7 |
| 20260507000038 | 58 | 302 | 1.0 | 8.0 | 0.00 | 0.00 | 0.00 | 74 | 1020.7 |
| 20260506234548 | 58 | 317 | 1.0 | 6.0 | 0.00 | 0.00 | 0.00 | 73 | 1020.7 |
| 20260506233036 | 59 | 286 | 1.0 | 8.0 | 0.00 | 0.00 | 0.00 | 72 | 1020.7 |
| 20260506231531 | 59 | 262 | 1.0 | 5.0 | 0.00 | 0.00 | 0.00 | 72 | 1020.7 |
| 20260506230034 | 59 | 0 | 2.0 | 8.0 | 0.00 | 0.00 | 0.00 | 72 | 1020.7 |
| 20260506224537 | 58 | 292 | 2.0 | 7.0 | 0.00 | 0.00 | 0.00 | 72 | 1020.7 |
| 20260506223036 | 58 | 259 | 2.0 | 6.0 | 0.00 | 0.00 | 0.00 | 72 | 1020.9 |
| 20260506221534 | 59 | 277 | 1.0 | 8.0 | 0.00 | 0.00 | 0.00 | 72 | 1020.9 |
| 20260506220036 | 59 | 311 | 2.0 | 8.0 | 0.00 | 0.00 | 0.00 | 71 | 1021.1 |
| 20260506214541 | 60 | 227 | 1.0 | 8.0 | 0.00 | 0.00 | 0.00 | 71 | 1021.0 |
| 20260506213036 | 58 | 228 | 2.0 | 9.0 | 0.00 | 0.00 | 0.00 | 71 | 1020.9 |
| 20260506211535 | 58 | 312 | 2.0 | 10.0 | 0.00 | 0.00 | 0.00 | 72 | 1021.1 |
| 20260506210038 | 57 | 334 | 2.0 | 10.0 | 0.00 | 0.00 | 0.00 | 72 | 1021.0 |
| 20260506204547 | 58 | 330 | 1.0 | 6.0 | 0.00 | 0.00 | 0.00 | 74 | 1021.0 |
| 20260506203033 | 57 | 284 | 1.0 | 11.0 | 0.00 | 0.00 | 0.00 | 75 | 1021.0 |
| 20260506201539 | 57 | 360 | 3.0 | 13.0 | 0.00 | 0.00 | 0.00 | 74 | 1020.9 |
| 20260506200036 | 57 | 360 | 1.0 | 10.0 | 0.00 | 0.00 | 0.00 | 76 | 1020.9 |
| 20260506194539 | 56 | 360 | 3.0 | 9.0 | 0.00 | 0.00 | 0.00 | 76 | 1020.8 |
| 20260506193031 | 56 | 360 | 1.0 | 8.0 | 0.00 | 0.00 | 0.00 | 77 | 1020.7 |
| 20260506191533 | 56 | 360 | 1.0 | 9.0 | 0.00 | 0.00 | 0.00 | 79 | 1020.6 |
| 20260506190038 | 55 | 360 | 2.0 | 6.0 | 0.00 | 0.00 | 0.00 | 80 | 1020.6 |
| 20260506184535 | 55 | 360 | 2.0 | 8.0 | 0.00 | 0.00 | 0.00 | 80 | 1020.7 |
| 20260506183038 | 56 | 360 | 0.0 | 6.0 | 0.00 | 0.00 | 0.00 | 80 | 1020.6 |
| 20260506181536 | 55 | 360 | 1.0 | 5.0 | 0.00 | 0.00 | 0.00 | 81 | 1020.5 |
| 20260506180038 | 55 | 360 | 2.0 | 5.0 | 0.00 | 0.00 | 0.00 | 81 | 1020.6 |
| 20260506174536 | 54 | 360 | 2.0 | 6.0 | 0.00 | 0.00 | 0.00 | 82 | 1020.5 |
| 20260506173037 | 54 | 360 | 1.0 | 4.0 | 0.00 | 0.00 | 0.00 | 84 | 1020.6 |
| 20260506171541 | 53 | 360 | 2.0 | 6.0 | 0.00 | 0.00 | 0.00 | 84 | 1020.5 |
| 20260506170045 | 53 | 360 | 1.0 | 6.0 | 0.00 | 0.00 | 0.00 | 84 | 1020.5 |
| 20260506164546 | 53 | 360 | 0.0 | 3.0 | 0.00 | 0.00 | 0.00 | 85 | 1020.4 |
| 20260506163036 | 53 | 360 | 2.0 | 8.0 | 0.00 | 0.00 | 0.00 | 85 | 1020.3 |
| 20260506161539 | 52 | 132 | 1.0 | 4.0 | 0.00 | 0.00 | 0.00 | 86 | 1020.1 |
| 20260506160042 | 52 | 270 | 1.0 | 4.0 | 0.00 | 0.00 | 0.00 | 86 | 1020.2 |
| 20260506154541 | 52 | 0 | 1.0 | 5.0 | 0.00 | 0.00 | 0.00 | 87 | 1020.2 |
| 20260506153036 | 52 | 173 | 1.0 | 4.0 | 0.00 | 0.00 | 0.00 | 87 | 1020.0 |
| 20260506151549 | 51 | 0 | 1.0 | 5.0 | 0.00 | 0.00 | 0.00 | 87 | 1020.1 |
| 20260506150035 | 51 | 295 | 1.0 | 6.0 | 0.00 | 0.00 | 0.00 | 88 | 1020.3 |
| 20260506144535 | 51 | 319 | 1.0 | 6.0 | 0.00 | 0.00 | 0.00 | 88 | 1020.1 |
| 20260506143044 | 51 | 126 | 1.0 | 4.0 | 0.00 | 0.00 | 0.00 | 88 | 1019.6 |